This is the latest recevied weather packets stored in our database for station/object W6SNO-1. If no packets are shown the sender has not sent any weather packets the latest 10 day(s).
| Time | Temp. | Humidity | Pressure | Rain* | Wind** | Luminosity | Snow |
|---|---|---|---|---|---|---|---|
| 1778197602 | 23.89° C | 56% | 1016.5 hPa | 0 mm | - | 406 W/m² | - |
| 1778197298 | 23.33° C | 57% | 1016.4 hPa | 0 mm | - | 431 W/m² | - |
| 1778196995 | 23.89° C | 56% | 1016.5 hPa | 0 mm | - | 444 W/m² | - |
| 1778196694 | 23.33° C | 58% | 1016.3 hPa | 0 mm | - | 461 W/m² | - |
| 1778196390 | 23.33° C | 58% | 1016.6 hPa | 0 mm | - | 473 W/m² | - |
| 1778195783 | 23.33° C | 57% | 1016.6 hPa | 0 mm | - | 517 W/m² | - |
| 1778195481 | 23.33° C | 57% | 1016.6 hPa | 0 mm | - | 517 W/m² | - |
| 1778195177 | 23.33° C | 58% | 1016.7 hPa | 0 mm | - | 534 W/m² | - |
| 1778194874 | 23.33° C | 58% | 1016.9 hPa | 0 mm | - | 535 W/m² | - |
| 1778194569 | 23.33° C | 57% | 1016.6 hPa | 0 mm | - | 556 W/m² | - |
| 1778194266 | 23.33° C | 58% | 1017 hPa | 0 mm | - | 561 W/m² | - |
| 1778193961 | 22.78° C | 58% | 1017 hPa | 0 mm | - | 579 W/m² | - |
| 1778193658 | 22.78° C | 58% | 1016.9 hPa | 0 mm | - | 591 W/m² | - |
| 1778193354 | 22.78° C | 59% | 1017 hPa | 0 mm | - | 603 W/m² | - |
| 1778193051 | 22.78° C | 59% | 1017.1 hPa | 0 mm | - | 614 W/m² | - |
| 1778192748 | 22.78° C | 59% | 1017.2 hPa | 0 mm | - | 625 W/m² | - |
| 1778192445 | 22.78° C | 58% | 1017.3 hPa | 0 mm | - | 630 W/m² | - |
| 1778192141 | 22.78° C | 59% | 1017.2 hPa | 0 mm | - | 646 W/m² | - |
| 1778191838 | 22.78° C | 60% | 1017.2 hPa | 0 mm | - | 663 W/m² | - |
| 1778191535 | 22.78° C | 60% | 1017.2 hPa | 0 mm | - | 669 W/m² | - |
| 1778191233 | 22.22° C | 61% | 1017.2 hPa | 0 mm | - | 685 W/m² | - |
| 1778190929 | 22.22° C | 62% | 1017.2 hPa | 0 mm | - | 689 W/m² | - |
| 1778190627 | 22.22° C | 62% | 1017.5 hPa | 0 mm | - | 696 W/m² | - |
| 1778190324 | 22.22° C | 62% | 1017.3 hPa | 0 mm | - | 705 W/m² | - |
| 1778190020 | 21.67° C | 61% | 1017.5 hPa | 0 mm | - | 713 W/m² | - |
* Rain latest hour (hover to see other rain measurements)
** Current wind speed in m/s (hover to see current wind gust speed)